Regional Weather Roundup
Issued by NWS

Home | Current Version | Previous Version | Graphics & Text | Print | Product List | Glossary On
Versions: 1 2 3 4 5 6 7 8 9 10 11 12 13 14 15 16 17 18 19 20 21 22 23 24 25 26 27 28 29 30 31 32 33 34 35 36 37 38 39 40 41 42 43 44 45 46 47 48 49 50
000
ASUS45 KSLC 302310
RWRUT

UTAH REGIONAL WEATHER ROUNDUP
NATIONAL WEATHER SERVICE SALT LAKE CITY UT
500 PM MDT TUE JUN 30 2015

UTZ001>011-023>025-010000-

NORTHERN UTAH

CITY           SKY/WX    TMP DP  RH WIND       PRES   REMARKS
BRIGHAM CITY   MOSUNNY   98  42  14 SW6       29.98F HX  93
HILL AFB       SUNNY     96  47  18 VRB5      30.04F HX  93
LOGAN          SUNNY     95  50  21 NW3       30.00F HX  92
OGDEN          SUNNY     98  45  16 CALM      30.00F HX  94
PROVO AIRPORT  MOSUNNY   97  52  21 NW7       30.00F HX  94
SALT LAKE CITY MOSUNNY  100  52  19 N12       29.97F HX  97
VERNAL         CLOUDY    79  49  34 W7        30.14F
WENDOVER       MOSUNNY  100  45  15 SE10      29.98F HX  96
HEBER CITY     MOSUNNY   97  39  13 N5        30.09F HX  92
WEST JORDAN    SUNNY     99  46  16 N12       30.02F HX  95

$$

UTZ012>022-026-027-010000-

SOUTHERN/CENTRAL UTAH

CITY           SKY/WX    TMP DP  RH WIND       PRES   REMARKS
BLANDING       SUNNY     94  44  17 S10G17    30.16F HX  90
BRYCE CANYON   CLOUDY    73  48  41 CALM      30.31F
CEDAR CITY     CLOUDY    91  42  18 MISG      30.11F
DELTA          MOSUNNY  101  34  10 W3        29.99F HX  95
HANKSVILLE     SUNNY    106  36   9 N9        29.96F HX  99
MILFORD        LGT RAIN  99  42  14 W13       30.01S HX  94
MOAB/CYNLANDS  SUNNY    104  35   9 NW8       29.93F HX  98
PRICE          LGT RAIN  80  58  46 NE25G31   30.10F
ST GEORGE      PTCLDY   109  50  14 W13G22    29.85F HX 106
KANAB          PTSUNNY   99  43  14 W10       30.08F HX  94

$$

REGIONAL REPORTS     COLORADO/ARIZONA

CITY           SKY/WX    TMP DP  RH WIND       PRES   REMARKS
CRAIG, CO      PTSUNNY   91  40  16 CALM      30.12F
GRAND JUNCTION MOSUNNY  101  40  12 W9        29.97F HX  96
RIFLE          PTSUNNY   96  37  12 N12       30.03F HX  91
MONTROSE       SUNNY     97  43  15 VRB6      30.08F HX  93
CORTEZ         SUNNY     95  45  17 VRB6      30.09F HX  91
PAGE, AZ       MOSUNNY  105  38  10 VRB6      29.95F HX  99
GRAND CANYON   PTSUNNY   89  46  22 SW3       30.19F
KINGMAN        SUNNY    100  52  19 SW14G23   29.95F HX  97
FLAGSTAFF      CLOUDY    73  55  53 SW14      30.24S

$$

REGIONAL REPORTS    NEVADA/IDAHO/WYOMING

CITY           SKY/WX    TMP DP  RH WIND       PRES   REMARKS
LAS VEGAS, NV  MOSUNNY  110  46  11 S7        29.74F HX 105
ELY            PTSUNNY   85  47  26 W13       30.20F
ELKO           PTSUNNY   96  40  14 SW10      30.05F HX  92
POCATELLO, ID  SUNNY     92  56  29 NE20G28   30.03F HX  90
BURLEY         PTSUNNY   94  55  26 W10       29.99F HX  92
EVANSTON, WY   MOSUNNY   88  39  17 W14G22    30.24F
ROCK SPRINGS   PTSUNNY   84  46  26 W8        30.19R
KEMMERER       MOSUNNY   86  41  20 NW20G26   30.26S

$$



USA.gov is the U.S. government's official web portal to all federal, state and local government web resources and services.